Run Northumberland Tynedale Half Marathon
Skip Navigation Links
Results
Details
Race Website
15 May 2016
HyperLink
Page 1 of 5 (214 items)
[1]2345
Pos
Race No
Fav
Share
Print
Name
Time
Net Time
Category
Cat Pos
Gender
Gen Pos
Club
Pace
1326Conrad FRANKS01:21:2501:21:24SEN1Male1Gateshead Harriers & AC6:12 m/hr
284Chris Birchall01:23:4701:23:46SEN2Male2Unattached6:23 m/hr
3484Judith NUTT01:24:4001:24:39V351Female1Elswick Harriers6:27 m/hr
4529Les SMITH01:24:4201:24:41V451Male3Heaton Harriers & AC6:27 m/hr
5167Neil CLUBBS01:25:2901:25:28SEN3Male4Unattached6:31 m/hr
6447Kevin LISTER01:25:5501:25:53V401Male5North East Veterans AC6:33 m/hr
730George ARTHUR01:25:5901:25:57V501Male6South Shields Harriers & AC6:33 m/hr
85320Peter Hearn01:26:0401:26:01V502Male7Tynedale Harriers & AC6:34 m/hr
9477Joseph MULROY01:27:0401:27:02SEN4Male8Low Fell Running Club6:38 m/hr
10589Matthew Brown01:29:0501:29:05SEN5Male9Unattached6:48 m/hr
11466Dominic MCDERMOTT01:29:4201:29:42V503Male10Tynedale Harriers & AC6:50 m/hr
12410James HARDIE01:30:3101:30:26SEN6Male11Wallsend Harriers & AC6:54 m/hr
1339Paul BANKS01:30:3601:30:18V452Male12Morpeth Harriers & AC6:54 m/hr
14456Rob LYNCH01:32:4501:32:40SEN7Male13Unattached7:04 m/hr
15348Liam FRIEL01:32:5001:32:47V551Male14Blaydon Harriers7:05 m/hr
16553Ian THOMPSON01:32:5201:32:38SEN8Male15Heaton Harriers & AC7:05 m/hr
17424Peter HOLMBACK01:33:1401:33:13SEN9Male16Blyth Running Club7:07 m/hr
18150Matt CAWOOD01:33:1901:33:18V453Male17Unattached7:07 m/hr
19170Douglas COCKETT01:33:3001:33:16SEN10Male18Unattached7:08 m/hr
2091Eleanor BRADBURY01:34:1901:34:17SEN1Female2Blaydon Harriers7:11 m/hr
21125Kevin BROWN01:34:2901:34:24V504Male19Unattached7:12 m/hr
22562Cliff VEITCH01:35:1601:35:05V505Male20Unattached7:16 m/hr
23547Stephen TAYLOR01:35:2601:35:25V402Male21Unattached7:17 m/hr
24574Ben WILLCOX01:35:4201:35:40SEN11Male22North Shields Polytechnic7:18 m/hr
25320Andrew FOX01:36:0201:35:55SEN12Male23Unattached7:19 m/hr
26204Andrew COSGROVE01:36:1901:36:17V454Male24Unattached7:21 m/hr
27419Jamie HIRD01:36:2001:35:54SEN13Male25Unattached7:21 m/hr
28180Jenny COLLINS01:36:2901:36:26SEN2Female3Unattached7:21 m/hr
29507John RAWLING01:36:5801:36:46V506Male26Unattached7:24 m/hr
30463Anna MCCLEAN01:37:0501:36:49V352Female4Low Fell Running Club7:24 m/hr
31138Peter CANTWELL01:37:1601:37:05SEN14Male27Unattached7:25 m/hr
32532Will Stageman01:37:4801:37:45SEN15Male28Northern Front Runners7:27 m/hr
33545Rob TAYLOR01:37:5801:37:42V403Male29Unattached7:28 m/hr
34577Joe WILLS01:38:0701:38:03SEN16Male30Unattached7:29 m/hr
35396Fraser GETHING01:38:3301:38:24V552Male31Unattached7:31 m/hr
36541Chris SUMSION01:38:4201:38:27V507Male32Tyne Bridge Harriers7:32 m/hr
3771Fiona BELGIAN01:38:4701:38:42V353Female5Unattached7:32 m/hr
38460David MATTHEW01:38:5601:38:44SEN17Male33Unattached7:33 m/hr
39564Mungai WAIRIA01:39:0101:38:56V601Male34Claremont Road Runners7:33 m/hr
40393David GARRICK01:39:1301:38:55V455Male35Unattached7:34 m/hr
41569Mark WEATHERBURN01:39:2201:39:06SEN18Male36Low Fell Running Club7:35 m/hr
42443David LEAT01:39:3201:39:21V602Male37Stocksfield Striders7:35 m/hr
43391Callum GARRICK01:39:3701:39:19SEN19Male38Unattached7:36 m/hr
44570Hugh WELCH01:39:3701:39:35V553Male39Tynedale Harriers & AC7:36 m/hr
45470Graeme MEARNS01:39:5401:39:52SEN20Male40Northern Front Runners7:37 m/hr
46459Gary MASON01:39:5501:39:40V456Male41Morpeth Harriers & AC7:37 m/hr
47199Peter CONROY01:40:1501:40:11V457Male42Unattached7:39 m/hr
48572Kieth WEST01:40:2101:40:19V554Male43Unattached7:39 m/hr
49440Christine KLEE01:41:0901:41:08SEN3Female6Tyne Bridge Harriers7:43 m/hr
50130David CAIN01:42:1201:42:09V603Male44Cumberland AC7:48 m/hr
Page 1 of 5 (214 items)
[1]2345
fb

HyperLink Copyright (c) G Vincent, 2017